Wind_Speed
13 13 13 14 13 12 12 11 11 11 11 11 11 11 11 11 10 11 11 11 11 11 11 10 10 10 9 9 8 7 7 8 8 8 8 7 7 7 7 7 7 8 8 8 8 7 7 7 7 6 7 7 6 4 2 2 1 1 3 5 7 10 12 14 15 15 15 14 12 11 10 10 9 9 9 9 8 8 8 8 8 8 7 7 6
12 12 12 13 12 12 11 10 9 9 10 10 10 11 11 10 10 10 10 9 9 9 9 9 9 9 9 8 8 7 7 7 7 8 7 7 7 7 7 7 7 8 8 8 8 8 7 7 7 6 6 6 6 5 4 5 4 1 1 2 2 4 7 10 14 16 16 15 13 12 11 11 10 9 9 9 9 9 9 9 9 9 9 8 7
11 11 11 11 11 10 10 9 8 9 9 9 9 10 10 9 9 9 9 8 8 7 7 7 8 8 8 8 8 7 7 6 7 7 7 7 7 7 7 7 7 7 8 8 8 8 8 7 7 7 6 6 6 6 5 5 3 0 1 0 2 4 4 5 8 13 16 17 15 13 12 12 11 11 10 10 10 10 10 10 10 10 10 9 8
11 11 10 10 10 9 9 8 9 9 8 8 8 8 8 8 8 8 8 8 7 7 7 7 7 7 7 7 7 7 7 7 6 6 6 6 7 7 7 6 6 6 7 8 8 8 9 8 7 7 6 6 6 6 5 4 2 3 1 1 2 4 6 6 4 5 11 16 17 15 13 13 12 12 12 12 13 12 12 12 11 11 11 11 10
10 10 9 10 9 8 8 8 8 7 6 6 6 6 6 6 7 7 8 8 7 7 7 7 6 6 6 6 6 6 7 6 6 6 6 6 6 6 6 6 6 6 6 7 7 8 9 9 8 8 7 6 6 7 6 4 3 5 3 2 2 3 3 4 4 4 3 9 15 17 16 14 15 15 16 16 16 16 15 14 13 13 13 12 12
9 9 9 9 8 7 7 7 7 6 6 5 5 5 5 6 6 6 7 7 8 7 7 7 7 6 6 5 5 6 7 7 6 6 6 5 5 5 5 5 6 7 7 7 7 7 8 9 9 9 8 6 6 7 7 5 4 6 5 4 3 2 1 2 3 4 3 1 6 12 15 15 16 18 19 20 20 20 19 17 16 14 14 14 13
8 8 8 7 7 7 7 7 8 8 8 8 7 6 6 6 6 6 6 7 7 7 7 7 7 6 6 6 6 6 7 7 7 6 5 5 5 5 5 6 6 6 7 6 6 6 7 8 9 9 10 9 7 7 8 7 6 6 6 5 4 3 2 3 3 2 2 2 1 5 8 10 12 13 15 16 19 21 22 20 19 17 15 15 15
7 6 6 6 6 7 7 8 9 9 9 9 9 8 7 6 6 7 7 7 7 8 7 7 6 6 6 7 7 6 7 7 7 7 6 5 5 6 6 7 7 7 6 6 6 6 6 7 8 9 10 10 9 8 8 8 7 6 7 6 5 4 3 3 3 2 2 2 2 3 5 6 8 10 11 11 14 18 22 22 21 19 18 16 16
5 5 4 4 6 7 8 9 10 10 10 9 9 8 8 7 7 7 8 8 7 8 8 7 7 6 7 7 7 7 6 7 7 7 7 6 6 7 7 7 7 7 6 6 6 6 6 6 8 9 9 10 10 10 9 9 8 8 8 7 6 5 5 5 4 4 4 4 5 6 6 7 9 12 11 10 12 15 18 20 21 20 19 19 18
3 3 3 4 6 8 9 10 10 11 10 9 9 8 8 7 7 8 8 8 7 7 8 8 7 7 7 6 7 7 6 7 8 8 9 7 7 7 8 7 8 8 7 6 6 6 6 6 7 8 9 10 10 11 11 11 10 9 9 9 9 8 8 8 7 6 6 7 7 7 8 8 10 12 10 9 10 12 13 15 18 20 20 20 20
1 2 4 6 7 9 9 10 10 10 10 9 9 8 8 7 7 7 7 7 7 7 7 8 8 8 8 7 7 7 7 7 8 9 10 9 8 9 9 8 7 7 8 8 7 6 6 7 7 7 8 10 10 11 12 13 12 11 11 11 11 11 10 11 11 10 9 9 9 8 9 9 11 11 8 8 10 10 11 11 12 15 19 22 21
2 4 7 8 9 9 9 9 9 10 10 10 9 8 7 7 7 8 8 8 8 8 8 8 8 9 9 8 8 8 8 8 9 10 11 10 9 10 11 10 8 7 8 9 8 7 7 7 7 7 8 9 10 11 12 13 13 13 13 13 13 12 12 12 13 13 12 11 10 10 10 10 11 11 8 8 10 10 10 10 10 11 15 20 22
4 6 8 9 9 8 8 8 9 9 9 9 9 9 8 8 9 9 9 9 9 9 9 9 9 10 10 10 10 9 9 10 10 11 11 11 11 11 12 12 11 9 9 9 9 9 8 7 7 7 8 8 9 11 12 13 13 13 13 13 14 14 14 14 13 13 13 12 11 10 10 11 12 11 9 8 10 10 10 11 11 11 13 15 18
6 7 8 8 7 7 7 7 8 8 9 10 10 10 10 10 10 10 10 10 10 10 10 11 11 11 12 12 12 11 11 12 12 12 12 12 12 12 13 13 12 12 11 10 10 10 9 8 8 8 8 8 9 10 12 13 13 14 14 13 13 14 14 14 13 13 13 12 11 11 10 11 12 12 10 10 11 11 11 11 11 13 13 12 12
6 7 7 6 5 6 6 6 7 8 9 10 11 11 12 12 12 12 12 11 12 12 12 13 13 13 14 14 14 13 14 14 14 14 14 13 12 13 14 14 13 14 13 11 11 11 10 10 9 9 9 9 9 10 11 13 14 14 14 14 14 14 14 14 13 13 13 13 12 12 11 11 12 12 12 11 12 13 13 12 13 13 14 13 12
6 6 5 4 5 5 5 6 7 8 9 10 11 12 13 13 13 13 13 13 13 13 13 14 14 15 16 16 16 16 16 15 15 15 15 15 14 14 15 16 15 14 13 12 11 12 12 11 11 10 10 10 11 11 12 13 14 14 14 14 14 14 14 14 13 13 13 13 13 13 13 12 12 12 12 12 13 14 14 14 14 15 14 13 13
6 5 4 4 4 4 4 6 7 8 9 10 12 13 13 13 13 14 14 14 14 14 15 16 17 17 18 18 18 18 18 17 16 16 16 16 15 15 16 17 16 14 14 13 13 13 13 12 12 12 11 11 11 11 12 12 13 13 13 13 14 14 14 14 14 14 14 15 15 14 14 13 13 12 13 13 14 14 15 15 16 16 16 15 14
6 4 4 3 4 4 4 6 7 7 9 11 12 13 13 14 14 15 15 16 16 17 17 18 19 20 20 20 20 20 20 19 17 16 16 16 16 16 17 18 17 15 15 14 14 14 14 14 13 13 12 12 12 12 11 11 11 11 11 12 13 14 14 14 15 16 16 16 16 15 15 14 14 13 13 13 14 14 15 16 16 16 16 16 16
5 4 4 4 4 4 5 6 6 7 9 10 12 13 14 14 15 15 16 16 17 17 18 19 20 21 22 22 23 22 22 21 18 16 16 16 16 16 16 17 17 17 16 15 15 15 15 15 14 14 13 13 13 13 11 10 10 10 10 11 12 13 14 15 16 16 17 16 17 16 15 14 14 14 13 13 13 14 15 16 17 17 17 17 17
5 4 4 4 4 4 5 6 6 7 9 10 11 13 14 14 14 14 15 15 15 16 18 19 21 22 22 21 20 20 19 19 17 15 14 15 15 15 15 15 16 17 16 16 15 15 15 15 15 14 14 14 14 14 13 12 11 11 11 11 12 12 13 14 15 15 16 15 15 14 14 13 13 13 14 14 14 15 15 16 17 18 18 18 17
5 5 5 5 5 5 5 6 6 7 8 9 11 12 13 13 13 14 14 14 15 16 17 19 21 21 19 17 16 16 16 15 14 12 12 12 12 13 13 13 14 16 16 16 16 16 16 15 15 15 15 15 16 16 16 15 15 15 15 15 15 14 14 14 14 14 15 15 14 13 13 13 13 14 14 15 15 15 16 16 17 18 18 18 19
6 5 6 6 5 5 5 5 6 6 7 9 10 11 11 11 12 13 13 14 15 15 16 18 19 18 16 16 16 16 16 15 13 11 10 9 10 11 11 11 13 14 15 16 17 17 17 17 17 16 16 17 17 18 18 18 18 18 19 19 19 18 17 16 15 14 15 16 16 16 16 16 15 15 15 15 16 16 16 16 17 17 18 19 19
7 6 6 7 6 6 5 5 5 6 8 9 10 10 10 11 11 12 13 14 14 14 16 18 17 15 16 16 17 17 18 16 14 11 10 9 9 10 10 10 12 13 14 16 17 18 19 19 18 18 18 18 19 19 19 19 20 21 21 21 22 21 19 17 16 16 17 18 19 19 19 19 19 19 18 18 18 18 18 18 18 19 19 20 20
8 7 7 7 7 6 5 4 5 6 8 9 10 10 10 11 11 12 13 13 14 14 16 17 16 14 15 17 18 19 20 19 17 15 12 11 10 9 10 10 11 13 13 15 17 18 19 20 20 20 20 21 21 22 21 21 21 22 22 23 22 22 21 20 19 19 19 20 21 22 23 23 22 22 22 22 22 22 22 22 22 22 22 22 22
8 7 8 8 7 6 5 4 5 6 8 10 10 10 11 11 12 12 13 13 14 14 15 16 16 14 15 17 19 21 22 22 21 19 17 15 12 10 9 9 11 12 13 14 16 18 19 21 22 22 23 24 24 25 25 25 25 24 24 23 23 22 22 23 22 22 22 22 22 23 25 25 25 26 26 25 25 25 25 25 25 26 26 25 24
10 8 8 9 7 6 5 4 5 6 8 10 11 11 11 11 12 12 12 14 14 15 15 16 17 16 15 17 20 22 24 25 24 22 20 19 17 14 11 9 10 11 12 13 15 17 18 20 21 23 24 25 26 26 27 27 27 26 25 24 23 23 24 24 24 24 24 24 24 24 25 27 27 28 29 29 29 29 28 28 28 28 29 29 28
11 10 9 9 8 6 5 4 5 6 8 9 11 11 11 11 12 12 14 15 16 17 17 17 18 18 17 17 19 22 24 25 25 24 22 21 20 18 16 14 12 11 12 12 13 15 17 19 20 22 23 24 25 26 27 27 27 26 25 24 24 24 25 26 28 28 27 27 27 27 27 28 29 30 31 31 32 32 32 31 31 30 30 31 31
14 12 11 9 8 7 6 5 6 7 8 10 11 11 11 11 12 13 16 17 18 19 20 20 20 20 19 19 19 20 22 24 25 25 24 23 22 22 21 19 17 15 14 13 12 13 15 17 18 20 21 22 23 24 25 25 25 25 24 24 23 24 25 27 29 31 31 30 31 31 30 30 31 31 32 33 33 34 35 35 34 33 33 33 33
15 14 12 10 9 8 7 6 7 8 9 10 10 10 11 11 13 15 17 18 20 21 22 22 21 21 21 20 20 20 21 23 24 24 24 23 23 23 23 22 22 20 19 17 16 15 16 16 17 19 20 22 23 23 24 24 23 23 23 23 24 25 26 27 28 30 32 33 33 34 34 34 35 35 35 35 35 36 37 38 38 37 36 35 35
17 15 13 12 10 9 7 7 8 9 9 9 9 9 11 13 15 16 17 18 20 22 22 22 21 21 20 20 20 20 20 21 23 24 24 23 23 23 23 23 23 23 23 22 21 21 21 22 22 21 21 22 23 24 24 24 24 24 25 26 26 27 27 27 27 28 30 33 34 36 36 36 36 36 37 37 37 38 38 39 40 41 41 39 38
17 16 14 13 11 9 8 8 8 9 10 9 9 10 12 14 15 16 17 19 20 21 21 21 20 20 19 19 18 18 19 20 21 22 23 23 23 23 23 24 24 25 25 26 25 25 26 27 27 27 26 26 26 26 25 25 25 26 27 28 28 28 28 28 27 27 28 30 32 34 35 35 35 36 36 37 37 38 38 39 40 41 42 43 42
18 17 15 14 11 10 9 8 8 9 10 10 10 11 13 14 15 15 17 18 19 20 20 20 20 20 20 18 17 17 17 18 19 21 22 23 24 25 25 25 25 26 26 27 27 27 28 29 30 31 31 30 29 29 28 27 27 28 29 29 29 29 29 28 28 29 30 30 30 31 32 34 35 35 36 37 37 37 38 39 40 41 42 44 45
19 18 16 15 12 11 9 9 9 9 10 11 12 13 14 14 14 15 17 19 20 20 21 21 21 21 21 20 18 18 18 18 19 20 22 23 24 26 27 27 27 27 27 28 29 29 30 31 32 33 32 32 32 31 30 30 29 29 29 30 29 29 28 28 29 32 33 33 33 33 33 34 35 36 37 37 37 37 38 39 40 42 43 44 45
21 19 17 15 13 12 10 9 9 10 11 12 13 13 14 14 14 15 18 20 21 21 22 22 22 22 22 22 21 20 20 20 21 22 23 24 25 26 28 29 29 29 29 29 30 30 31 32 33 34 34 33 33 33 32 31 31 31 31 31 30 29 29 30 31 33 34 35 35 36 37 37 37 38 38 38 38 39 40 41 42 43 44 45 45
22 20 18 16 14 13 11 10 10 11 12 13 14 14 14 13 14 16 19 20 22 23 24 24 24 23 23 24 23 22 22 23 24 25 26 26 27 27 27 28 29 30 30 30 30 31 31 32 34 35 35 34 34 34 33 32 31 31 32 32 31 31 31 32 33 34 34 35 36 37 38 39 39 38 38 38 38 38 39 39 39 39 41 42 43
22 21 19 17 15 13 12 12 12 12 13 14 14 14 13 14 15 17 19 21 23 25 26 27 27 26 25 25 25 24 24 25 26 27 28 28 28 28 28 27 28 29 30 30 31 31 32 33 35 35 36 36 36 36 34 31 30 31 32 32 33 33 34 35 36 36 37 37 37 37 37 38 38 38 37 37 37 36 35 35 35 36 37 38 39
23 22 20 18 16 14 13 13 12 13 14 15 15 14 14 15 17 19 20 21 23 26 27 28 28 27 27 26 26 27 26 26 27 28 29 30 30 30 29 28 28 28 30 31 32 34 34 35 36 37 38 38 38 38 36 33 32 31 30 31 32 34 35 37 38 40 41 41 41 40 39 38 38 38 38 37 36 36 35 36 37 38 38 38 39
24 23 21 19 17 16 15 14 13 13 14 15 15 15 15 16 18 20 21 23 24 26 28 29 28 28 28 28 27 28 27 27 27 29 30 31 31 31 31 30 30 30 32 33 34 35 36 37 37 38 39 40 40 39 39 37 34 31 28 29 32 35 37 39 41 43 44 44 44 42 40 39 39 39 39 39 38 38 39 40 42 42 43 43 44
25 24 22 20 19 18 16 14 14 14 14 15 16 16 16 18 19 21 23 24 26 27 29 30 30 28 28 28 28 28 28 27 28 29 30 31 31 31 32 33 32 33 34 35 35 36 38 38 38 38 39 39 37 37 38 38 36 32 29 31 35 38 39 40 42 44 45 46 47 45 43 43 42 42 41 41 42 42 44 45 46 47 48 49 49
26 25 23 22 21 20 17 15 15 14 14 15 16 16 17 19 20 22 24 26 28 29 31 32 30 28 26 27 27 27 27 27 28 29 30 31 31 31 33 35 35 36 38 39 39 40 41 41 39 38 37 35 34 35 37 38 36 33 32 35 39 42 43 42 43 45 46 48 48 48 47 47 47 46 45 44 45 46 47 49 50 50 51 51 51
27 26 25 24 23 20 18 16 15 14 14 15 15 16 17 19 21 23 24 26 29 31 32 31 28 26 26 26 26 26 27 28 29 30 31 32 32 33 34 37 38 39 41 42 43 44 43 41 38 34 30 30 32 34 33 32 31 32 33 35 38 41 43 43 44 47 49 49 50 50 49 49 49 49 48 47 47 49 49 50 50 51 51 51 51
28 28 27 25 22 20 19 17 15 14 14 15 15 16 17 19 22 24 24 26 28 29 29 28 25 25 26 27 27 27 28 30 31 31 32 33 34 35 36 38 39 40 42 45 47 44 39 36 34 32 29 28 29 30 30 29 31 34 36 37 39 41 44 45 46 49 51 51 51 51 50 50 50 50 49 49 49 50 50 50 50 50 50 51 51
29 29 28 25 21 20 20 17 15 14 15 16 16 16 17 19 22 23 23 24 26 27 28 27 26 26 27 28 28 29 30 31 32 33 33 34 36 37 38 39 40 40 42 45 45 39 34 35 35 34 33 31 29 30 32 33 37 42 42 43 44 46 47 47 47 49 51 52 52 52 51 51 51 51 50 50 50 50 50 50 50 50 51 51 52
30 30 28 24 21 21 20 17 15 15 16 17 16 15 17 20 22 22 22 23 25 27 28 29 29 29 29 30 30 30 31 32 33 34 35 36 37 38 38 39 40 41 43 43 41 37 37 40 38 35 33 32 31 32 36 41 48 51 50 49 49 49 49 49 47 48 51 53 52 52 51 51 51 51 50 50 50 50 50 50 50 50 50 51 51
31 30 27 23 22 22 20 17 16 15 16 16 15 14 16 20 22 23 23 24 26 28 30 32 32 32 32 32 32 32 32 33 34 36 36 37 38 38 39 40 41 42 42 42 41 41 43 44 41 36 33 32 34 38 44 51 55 55 55 54 53 51 50 49 47 48 50 51 51 50 50 51 52 51 50 50 50 49 50 50 50 50 51 51 50
33 30 26 24 23 23 21 18 17 16 16 16 15 15 17 21 23 23 23 25 27 29 32 34 36 36 35 34 33 33 34 34 35 37 37 37 38 38 39 41 42 43 42 42 44 45 45 45 43 40 38 39 42 47 52 55 56 56 57 55 51 50 49 47 47 47 48 50 50 49 49 50 51 50 49 49 49 49 49 50 50 50 50 49 47
34 30 27 25 25 23 21 20 18 17 18 17 15 15 18 22 24 24 24 26 28 31 33 36 38 40 39 36 34 34 35 35 36 37 38 38 38 38 39 41 43 43 41 42 46 46 44 43 45 45 45 47 50 53 54 56 57 57 55 52 50 49 48 47 46 46 47 49 50 49 48 48 49 48 47 48 48 48 50 50 49 48 46 45 44
35 32 29 27 25 24 23 21 19 19 20 18 16 17 20 24 25 25 26 27 29 31 34 36 38 41 41 38 35 35 36 37 37 37 38 38 38 38 40 41 43 42 41 43 47 46 42 44 48 49 49 51 54 55 56 57 57 55 53 51 51 50 49 47 46 45 45 46 47 48 47 46 46 47 46 47 48 48 48 47 46 44 42 41 41
37 34 31 27 26 25 25 23 22 22 21 19 17 19 22 24 25 26 27 28 30 32 35 36 39 41 41 39 36 36 37 38 38 38 38 39 38 38 40 42 42 42 42 44 45 45 46 49 51 52 52 54 55 55 56 57 56 54 53 52 51 51 49 47 45 44 44 44 45 47 46 45 46 46 45 46 47 46 45 43 41 41 40 40 39
38 34 31 29 28 28 27 26 25 24 22 20 20 22 25 26 26 26 28 29 31 34 35 37 40 42 40 37 36 37 39 39 39 39 39 39 39 39 41 43 43 42 43 44 44 47 51 52 52 53 53 54 55 56 56 56 55 54 53 52 50 48 47 46 45 44 44 44 46 47 47 46 46 47 46 45 44 42 41 40 38 37 37 37 37
38 36 33 32 31 30 28 27 27 26 24 23 23 25 27 27 27 28 29 30 33 35 36 37 39 40 39 37 37 38 40 40 40 39 40 39 39 40 41 43 43 43 44 45 47 49 52 53 53 53 53 54 54 55 55 54 53 52 51 50 48 47 47 47 46 46 45 45 46 47 46 45 45 45 44 42 40 38 38 37 36 35 35 36 36
Wind_Direction
89 88 87 88 85 80 80 77 74 72 69 64 59 56 52 49 49 51 51 50 50 48 46 44 43 47 56 61 59 49 36 32 34 30 19 11 11 11 3 356 355 353 351 352 356 0 5 12 18 20 25 25 21 21 43 67 51 267 272 272 266 260 255 251 250 250 252 252 252 251 253 256 259 265 270 274 278 279 279 279 281 286 290 294 299
85 85 83 82 79 75 75 74 73 72 69 63 59 54 48 42 39 42 46 45 46 47 46 42 39 37 39 46 53 54 45 34 30 28 19 10 9 10 2 352 350 347 343 343 345 349 354 359 358 358 9 12 7 6 25 50 49 36 280 279 291 285 271 260 253 250 250 253 255 254 254 255 257 261 267 273 277 281 282 281 280 280 283 286 291
82 82 79 77 74 71 70 66 63 62 59 56 55 52 46 41 34 33 38 41 39 41 45 43 39 36 32 32 38 45 46 40 32 28 22 12 9 8 2 351 346 343 337 335 334 338 344 351 348 343 351 354 352 355 13 42 49 90 170 255 8 16 1 317 276 257 251 249 251 254 255 256 258 261 265 269 272 275 277 279 279 277 277 278 281
81 80 77 74 71 67 64 58 51 50 48 47 46 43 40 38 33 27 26 32 33 30 35 43 42 35 32 26 24 32 38 40 35 30 26 17 12 5 359 351 346 342 333 326 324 328 333 340 340 335 343 346 338 337 357 30 347 289 319 1 17 30 26 19 351 286 258 249 245 248 254 258 261 263 265 266 268 269 270 272 273 273 273 273 274
82 80 76 72 67 61 55 49 42 40 41 40 37 29 24 24 26 23 17 18 23 21 18 29 38 32 30 20 11 16 24 34 33 28 29 20 14 5 355 350 348 342 330 320 314 317 321 326 330 330 336 341 332 326 336 6 327 303 328 359 29 41 24 27 33 18 302 254 243 242 248 258 264 266 266 265 265 265 266 266 266 267 269 269 268
84 80 76 72 66 56 47 39 29 23 19 16 14 11 7 6 10 13 13 9 11 14 9 15 25 21 20 13 6 5 7 19 20 16 23 17 11 2 351 350 349 341 330 317 307 303 306 312 319 323 327 330 328 321 322 335 324 314 330 350 18 44 356 348 23 28 27 322 244 242 248 258 266 269 269 268 266 265 265 265 264 263 264 266 266
83 78 73 68 57 43 33 22 14 9 3 358 356 356 355 356 0 2 7 6 3 4 3 10 17 11 6 3 3 4 357 3 5 356 2 7 2 356 349 350 350 342 330 317 302 292 291 300 309 313 316 319 320 318 317 319 321 322 327 336 357 16 342 339 2 7 16 30 262 245 252 261 269 273 277 279 277 269 262 258 258 258 258 259 261
90 79 66 52 33 21 14 7 0 357 354 352 350 351 352 353 357 358 1 2 356 352 354 4 10 1 0 358 355 356 347 348 350 341 342 350 347 346 346 347 350 346 335 319 300 285 281 290 298 302 305 308 311 312 310 308 313 318 312 316 336 343 330 337 355 350 331 314 290 274 269 274 280 279 283 299 300 282 264 253 249 250 252 254 256
96 81 56 32 8 358 355 352 349 348 348 348 350 352 352 354 358 360 358 355 351 347 346 353 360 354 355 353 344 348 342 332 332 325 327 337 334 331 336 340 346 346 339 324 303 285 279 284 289 293 296 299 303 305 304 302 305 306 303 308 317 318 318 322 332 328 312 302 293 288 286 289 289 282 285 307 318 305 284 265 253 247 248 252 253
86 57 27 2 345 343 343 344 345 348 350 353 357 357 354 354 358 1 356 351 348 346 341 343 346 344 345 342 332 337 336 323 317 309 313 326 324 317 321 329 337 340 334 324 306 289 281 282 287 291 293 295 297 299 300 299 299 300 300 304 306 307 312 314 313 311 306 302 298 295 293 294 292 288 292 306 311 313 307 286 267 255 250 251 253
56 357 344 339 337 337 339 344 352 357 358 2 4 1 355 355 358 1 358 352 348 346 341 337 336 335 332 328 321 324 326 317 307 302 309 320 315 308 311 316 324 328 325 318 308 294 284 285 290 294 296 296 296 295 296 296 298 300 300 300 300 303 309 310 309 309 307 304 301 300 297 295 294 292 297 301 296 303 313 308 288 269 257 252 250
356 337 333 335 338 339 343 351 0 3 5 9 11 6 360 359 3 4 2 357 352 347 342 337 334 331 327 323 318 318 317 309 303 305 311 313 307 305 306 308 311 313 313 312 307 296 288 289 293 296 298 298 296 293 290 290 294 298 298 299 300 302 305 306 307 307 306 303 302 304 304 302 301 299 300 298 294 296 302 309 308 292 271 257 250
342 336 334 337 340 345 351 356 360 4 10 16 17 15 11 9 10 8 4 1 356 350 347 344 340 335 330 326 323 320 316 309 306 306 306 306 304 304 304 305 305 303 302 304 304 300 292 288 288 290 294 296 297 293 288 286 287 290 292 294 297 300 303 303 302 302 302 300 301 304 307 306 304 301 299 295 294 293 293 300 306 303 291 272 260
337 336 336 340 346 351 354 354 357 6 14 20 22 21 18 15 13 9 4 1 355 352 350 348 345 341 335 332 329 325 319 314 310 304 301 301 302 301 300 300 300 297 297 300 303 301 293 286 287 289 294 299 301 298 292 287 284 284 286 288 291 296 300 300 301 301 300 300 300 302 304 304 304 304 303 298 294 290 288 291 295 297 294 287 280
334 335 337 343 348 353 355 353 360 9 16 21 23 20 16 12 8 3 358 355 351 348 347 345 344 342 338 335 332 328 324 320 316 310 304 301 298 297 295 295 295 294 295 298 301 299 291 287 288 293 299 304 305 302 296 290 284 281 282 286 291 296 299 299 298 298 298 299 300 300 301 302 303 305 307 303 298 293 290 286 284 287 288 290 294
332 333 335 345 348 352 358 0 6 12 15 18 17 14 11 6 2 357 352 349 346 344 344 344 344 343 340 336 332 329 327 325 322 318 313 308 303 296 291 292 294 294 295 297 297 295 291 288 288 292 300 306 307 304 300 295 289 282 279 283 291 298 299 298 296 296 296 296 297 297 299 300 302 304 306 306 304 301 297 292 287 284 283 284 285
331 329 330 340 345 351 359 7 12 13 15 15 13 11 8 4 359 354 349 346 345 344 345 346 346 345 340 336 331 327 325 324 323 321 317 313 308 299 292 293 296 296 295 292 291 292 292 290 289 291 296 303 307 307 304 299 294 286 280 281 290 297 298 298 296 295 294 293 292 293 293 295 297 300 304 307 308 306 303 299 295 291 286 282 279
328 321 322 331 334 341 358 11 14 14 16 13 9 7 3 360 355 350 347 346 345 346 347 346 344 341 337 332 328 324 321 320 320 320 316 312 309 303 298 296 296 295 293 288 286 290 293 294 292 291 292 298 305 307 305 302 297 291 286 286 292 295 295 294 293 292 291 289 287 287 288 290 292 295 298 301 304 306 306 304 302 298 292 288 284
320 312 307 314 317 329 352 6 10 11 12 7 3 1 358 355 350 345 345 345 344 345 345 343 340 336 333 331 328 326 322 318 317 316 313 311 309 307 302 298 294 292 291 288 286 287 291 295 295 293 292 295 300 303 303 301 297 293 289 290 292 292 290 288 286 285 284 282 281 281 282 285 287 290 292 294 297 299 300 302 303 302 299 294 289
308 300 293 295 303 323 344 355 3 8 5 359 356 355 353 350 344 342 344 343 342 344 342 339 335 333 333 336 338 338 335 329 323 318 314 311 309 308 304 297 292 289 288 286 285 285 288 292 293 294 295 295 297 299 300 299 295 291 289 289 290 291 290 287 284 281 277 274 271 271 273 277 281 285 288 291 293 294 295 296 298 300 300 298 293
292 285 280 282 295 316 336 346 357 2 357 350 348 351 350 346 342 345 345 342 342 343 341 337 335 336 342 351 358 1 2 359 349 335 323 314 310 309 305 297 291 289 287 285 283 283 285 288 291 295 297 297 295 294 294 293 291 289 288 289 290 290 290 288 286 279 271 265 262 264 269 274 279 283 286 289 291 293 295 296 296 296 297 297 295
277 274 272 277 290 309 330 345 354 356 350 342 342 347 349 346 345 347 343 340 340 343 342 342 342 345 352 359 4 7 10 14 14 2 345 332 322 316 309 301 297 293 290 287 284 284 286 288 292 295 297 295 294 293 292 291 290 289 289 290 291 292 290 287 285 280 270 263 261 265 270 275 279 283 286 289 291 294 296 297 298 297 296 295 294
269 268 268 273 286 303 324 345 351 348 341 336 339 345 347 346 345 343 340 339 341 345 348 349 350 351 352 354 358 1 2 5 9 8 0 352 341 332 321 308 299 295 291 288 286 286 287 289 291 293 293 293 292 291 291 291 290 289 289 289 289 290 290 288 284 278 270 265 263 266 269 272 275 279 283 287 290 293 295 296 297 298 298 296 292
266 262 265 270 282 298 317 337 345 341 332 330 336 339 340 339 339 338 338 338 341 345 348 350 350 348 344 345 350 354 355 354 356 358 358 356 350 342 332 318 303 296 293 291 290 291 291 292 293 294 294 294 293 292 291 291 290 288 287 287 289 291 293 292 288 282 274 268 265 266 268 270 273 275 277 279 283 286 290 292 294 295 297 297 295
267 260 263 266 274 290 306 324 335 333 327 328 332 332 331 332 334 333 332 333 337 339 340 341 342 339 335 336 339 343 345 347 349 349 350 352 351 347 337 323 310 303 298 294 293 294 294 294 295 295 295 294 294 293 292 291 290 288 287 287 289 291 292 292 289 285 280 275 271 269 269 270 272 274 274 275 276 278 282 285 288 290 292 294 295
271 261 259 262 268 280 292 312 323 323 323 326 328 327 328 330 330 327 323 324 328 330 331 330 331 330 327 326 328 331 334 337 340 342 343 344 344 345 341 330 318 309 303 298 294 293 294 293 292 291 290 290 290 291 291 291 290 289 288 287 288 291 292 292 290 287 283 281 279 277 276 276 276 276 276 276 276 275 276 278 281 284 287 289 291
273 262 255 257 263 271 280 296 307 312 317 321 323 325 327 328 326 320 316 318 323 325 326 325 323 322 321 321 322 324 326 328 329 332 335 336 336 337 337 337 331 322 312 303 296 292 290 289 287 285 284 284 285 287 288 289 289 287 286 286 289 293 296 296 295 292 289 286 284 282 281 281 281 281 280 280 279 278 278 277 277 278 281 284 286
272 262 251 252 258 262 271 284 293 301 309 315 318 322 324 323 317 311 312 318 322 324 325 325 321 317 314 314 317 320 321 321 321 322 326 328 330 330 331 333 333 330 324 316 307 300 294 289 285 281 280 279 280 282 283 284 283 282 282 284 288 291 292 292 292 292 291 289 288 287 285 283 282 282 282 282 282 282 282 281 280 277 276 277 279
267 261 248 246 251 255 263 276 285 295 302 308 313 315 315 311 307 308 313 319 323 325 326 327 325 319 313 310 311 316 318 317 316 316 317 320 322 323 324 325 325 325 325 324 322 318 311 303 296 288 281 278 276 276 277 277 276 276 277 279 281 282 282 281 282 285 287 288 287 287 287 286 285 284 283 283 284 284 284 285 284 283 280 276 275
264 260 246 240 243 246 255 268 280 289 296 302 305 305 302 301 304 309 316 321 324 327 328 328 328 325 320 315 312 314 316 317 315 312 312 313 315 316 317 317 317 318 319 320 322 322 319 316 312 303 293 286 281 278 276 274 273 272 273 274 276 277 276 275 275 278 282 285 286 286 287 287 287 286 285 285 284 284 284 284 284 284 284 281 278
260 256 244 235 235 237 245 258 272 282 289 294 295 294 295 298 304 312 319 325 328 329 329 330 331 331 329 325 320 318 318 317 315 313 312 312 312 312 313 313 313 313 314 314 317 319 319 317 315 312 306 299 293 288 283 278 275 273 273 274 277 280 281 281 282 284 285 285 285 285 284 283 283 283 283 283 283 283 282 281 281 281 282 282 281
254 252 240 231 228 231 240 249 262 273 281 285 286 290 293 297 305 316 324 328 330 331 331 333 335 336 335 332 328 324 321 319 318 316 314 314 314 314 314 313 313 312 311 312 314 316 316 315 314 312 309 305 301 297 291 284 279 276 276 278 280 283 285 287 289 293 294 291 287 284 282 280 280 280 280 279 279 279 279 279 278 278 278 278 279
249 246 236 227 224 227 236 244 254 265 273 278 282 286 290 296 308 319 326 328 330 332 335 337 338 339 338 335 333 329 325 322 321 320 319 317 317 317 316 315 313 312 312 312 313 314 314 312 311 310 308 306 302 298 292 288 284 281 279 279 280 282 282 284 289 294 296 294 290 286 284 282 281 281 279 278 277 276 275 275 275 275 275 275 276
246 241 231 224 223 225 229 237 248 259 269 274 278 282 287 296 309 319 324 328 332 334 336 337 338 338 338 335 332 330 326 324 324 323 323 321 319 317 315 314 313 312 313 313 313 313 312 311 309 307 306 304 300 296 293 289 286 284 282 281 283 284 283 283 286 289 291 291 291 289 287 285 284 283 281 280 278 276 274 273 273 273 273 273 274
243 238 228 223 222 223 224 231 244 257 266 271 274 280 286 297 309 317 322 327 331 335 336 336 334 334 334 332 330 327 325 324 324 325 325 324 321 317 313 312 311 312 313 313 313 312 311 308 306 305 305 302 298 295 292 288 287 286 285 286 288 288 287 285 284 285 286 286 287 287 287 287 287 286 284 283 281 279 277 274 273 274 274 274 273
242 236 229 225 224 224 225 231 242 253 262 269 275 280 287 298 307 314 321 326 330 333 334 334 333 331 328 327 326 327 326 323 323 325 326 324 321 318 315 314 313 314 315 315 313 312 310 307 304 303 302 299 296 294 291 291 291 290 289 290 290 289 288 287 287 287 287 287 287 286 286 287 288 287 286 286 284 282 279 276 274 275 275 273 271
239 235 231 228 226 226 227 232 240 251 261 270 277 284 291 297 303 311 320 326 329 331 333 334 334 331 326 323 324 326 326 324 322 324 325 324 322 320 319 318 319 320 319 317 316 314 311 307 304 301 298 295 294 293 294 296 296 294 292 292 292 291 290 291 291 292 292 292 293 292 291 290 289 288 287 286 284 282 279 277 276 277 276 273 270
236 234 232 230 229 229 230 233 241 253 264 273 282 289 293 295 301 310 318 324 327 329 330 331 332 331 328 325 325 325 325 324 324 325 324 322 322 322 321 321 322 322 321 318 317 315 312 307 303 300 296 294 294 295 297 297 296 292 290 294 298 297 295 295 294 294 294 294 294 293 292 290 289 287 285 284 282 280 280 279 279 279 278 276 273
234 233 233 232 232 232 233 235 244 255 265 277 287 292 294 298 304 310 316 321 325 326 325 326 327 329 328 326 325 324 324 325 324 324 322 321 322 322 322 322 322 322 320 319 317 316 312 306 301 299 296 295 296 297 294 294 293 287 283 291 301 302 299 297 294 293 293 292 292 292 291 289 287 285 283 281 280 280 280 280 281 280 279 278 277
234 233 232 231 233 234 234 237 245 256 267 279 288 292 297 303 308 311 315 319 322 323 322 321 322 325 326 325 324 324 324 325 324 323 321 321 321 322 322 321 321 322 322 320 319 317 312 307 304 302 297 293 293 293 290 291 293 289 284 289 297 300 300 298 296 293 292 290 290 290 289 288 286 284 281 280 279 278 279 280 280 280 280 279 279
234 233 232 232 235 237 238 240 246 255 267 277 285 293 301 306 308 311 316 321 324 324 322 320 322 325 326 325 324 324 325 325 323 322 321 320 319 320 320 320 322 324 324 322 321 319 314 310 310 310 302 290 285 285 287 291 293 291 288 287 289 292 294 295 294 292 290 288 288 288 287 285 284 282 281 279 278 277 278 278 278 278 279 279 279
233 234 234 235 236 238 241 243 248 254 265 275 283 294 302 304 306 311 318 324 327 327 325 324 324 326 326 325 325 325 326 324 323 321 319 318 318 318 320 321 323 324 324 323 323 322 319 318 317 316 309 294 283 283 290 295 297 298 294 289 288 290 291 290 291 291 290 288 287 287 286 284 282 281 279 279 278 278 277 277 277 278 278 278 278
234 233 235 237 237 239 242 245 248 255 263 272 281 291 298 300 303 308 317 326 329 328 325 324 324 325 325 324 325 325 324 322 321 319 317 316 318 319 320 322 322 322 323 323 324 324 323 322 321 315 307 296 286 285 291 297 301 303 299 293 291 292 292 290 288 289 290 289 287 286 285 283 282 280 280 280 279 278 278 278 277 277 277 278 278
237 234 235 237 237 239 243 246 250 255 260 267 274 284 292 296 300 306 316 324 328 328 326 323 321 321 322 323 324 323 322 320 319 317 316 317 318 319 321 321 319 320 322 321 321 320 317 315 316 312 304 295 288 286 291 295 299 300 300 297 295 294 293 291 289 289 289 288 286 285 284 283 282 280 280 280 280 280 280 279 278 278 278 278 278
240 237 235 234 236 239 243 246 249 252 254 259 266 278 289 294 298 305 315 320 323 325 327 326 323 319 318 319 321 321 319 318 317 316 316 317 318 318 319 317 316 318 320 317 314 313 311 310 311 308 301 293 289 288 290 293 295 297 298 298 297 296 295 294 292 291 288 286 285 283 281 281 281 280 279 280 281 281 281 281 280 280 280 280 280
244 240 236 235 237 240 242 244 246 248 253 258 265 278 287 290 295 305 313 317 320 322 323 325 325 323 319 316 316 317 317 315 315 315 316 316 316 317 317 315 314 317 317 314 312 312 313 313 311 308 302 296 292 291 291 293 295 295 296 298 298 298 297 296 295 292 289 286 284 281 279 278 279 278 279 280 282 282 283 282 282 282 282 280 279
246 242 238 237 237 239 241 243 245 250 257 262 270 280 283 286 293 303 312 316 318 320 321 323 325 325 321 315 312 313 315 314 313 313 313 314 314 315 315 313 314 316 314 312 311 312 313 312 308 306 303 298 296 297 296 296 297 297 299 301 302 301 301 300 297 293 289 285 283 282 280 278 278 278 280 282 283 284 284 283 283 282 280 278 276
248 245 241 237 237 240 243 245 249 255 261 266 274 280 282 286 294 303 311 316 318 319 319 322 324 324 320 313 309 311 314 314 313 312 311 312 313 314 312 312 314 314 311 311 311 310 310 308 305 304 302 299 299 299 298 298 300 302 304 305 305 305 305 303 300 296 291 288 285 284 283 281 281 281 282 283 284 285 284 283 282 279 277 275 273
251 249 244 238 237 240 242 246 252 257 261 267 275 281 283 288 296 304 310 315 317 317 318 320 321 321 317 311 307 311 314 313 312 310 309 310 312 311 310 311 314 313 311 312 310 306 306 307 305 303 302 301 300 300 300 302 304 306 307 307 307 307 306 305 302 299 295 292 289 287 287 286 286 285 285 286 287 286 284 282 280 278 275 273 272
251 248 243 238 237 239 242 247 253 257 261 268 275 281 285 290 298 305 309 313 314 314 316 318 318 318 317 312 308 311 313 312 310 309 309 310 310 310 310 312 314 313 311 310 307 303 304 305 303 302 302 301 301 301 303 305 307 307 308 308 309 308 307 305 303 300 297 295 292 291 291 290 289 288 287 287 287 286 283 281 278 276 275 273 272
249 245 240 238 239 240 243 248 254 258 263 269 275 281 285 291 298 303 307 310 311 312 314 316 315 315 315 312 310 311 311 311 309 308 308 309 309 309 310 311 312 310 309 307 305 303 303 303 302 302 302 302 303 305 306 307 308 309 310 310 310 308 306 305 303 301 299 297 294 294 294 292 291 291 290 288 286 285 283 281 278 276 274 273 273
Height
5922 5922 5922 5922 5923 5922 5922 5922 5923 5922 5922 5922 5921 5921 5921 5920 5920 5920 5919 5919 5919 5918 5918 5918 5918 5918 5918 5917 5917 5917 5916 5915 5914 5914 5914 5914 5913 5913 5912 5912 5911 5910 5910 5910 5910 5909 5909 5909 5908 5907 5907 5906 5905 5904 5904 5905 5906 5906 5905 5904 5904 5903 5903 5903 5904 5904 5904 5904 5905 5905 5905 5905 5905 5906 5906 5906 5906 5906 5906 5906 5906 5906 5906 5906 5906
5922 5923 5923 5923 5923 5923 5923 5923 5924 5923 5923 5923 5922 5922 5922 5921 5920 5920 5920 5919 5919 5919 5919 5919 5919 5919 5918 5918 5918 5917 5917 5916 5915 5915 5915 5914 5914 5913 5913 5912 5911 5911 5910 5910 5910 5909 5909 5909 5908 5908 5907 5906 5905 5905 5905 5907 5906 5905 5904 5903 5903 5902 5902 5902 5902 5903 5903 5904 5904 5904 5904 5904 5904 5905 5905 5905 5905 5905 5905 5906 5906 5905 5905 5905 5905
5923 5923 5924 5923 5924 5924 5924 5924 5924 5924 5923 5923 5923 5923 5922 5922 5921 5921 5920 5920 5920 5920 5920 5920 5919 5919 5919 5918 5918 5918 5918 5917 5916 5916 5915 5915 5914 5913 5913 5912 5912 5911 5911 5910 5910 5909 5909 5909 5908 5908 5907 5906 5905 5905 5906 5907 5905 5903 5903 5903 5903 5903 5902 5902 5902 5902 5902 5903 5903 5903 5903 5903 5903 5904 5904 5904 5904 5904 5904 5904 5905 5905 5905 5905 5905
5924 5924 5924 5924 5924 5925 5925 5925 5925 5924 5924 5924 5924 5923 5923 5922 5922 5921 5921 5921 5920 5920 5920 5920 5920 5919 5919 5919 5919 5918 5918 5918 5917 5917 5916 5915 5914 5914 5913 5913 5912 5912 5911 5910 5910 5909 5909 5909 5908 5908 5907 5907 5906 5905 5906 5907 5905 5903 5903 5903 5903 5903 5902 5901 5901 5900 5901 5901 5902 5902 5903 5903 5903 5903 5903 5903 5903 5903 5903 5903 5903 5904 5904 5904 5904
5924 5925 5925 5925 5925 5925 5925 5925 5925 5925 5925 5925 5924 5924 5923 5923 5922 5922 5921 5921 5921 5920 5920 5920 5920 5919 5919 5919 5919 5918 5918 5918 5918 5917 5916 5916 5915 5914 5913 5913 5912 5912 5911 5911 5910 5909 5909 5909 5908 5907 5907 5907 5906 5905 5905 5906 5905 5903 5903 5903 5903 5903 5902 5901 5900 5900 5899 5899 5900 5901 5901 5902 5902 5902 5901 5901 5901 5902 5902 5902 5902 5903 5903 5903 5903
5925 5926 5926 5926 5926 5926 5926 5926 5926 5926 5926 5925 5925 5924 5923 5923 5922 5922 5921 5921 5921 5920 5920 5920 5919 5919 5919 5919 5919 5918 5918 5918 5918 5917 5917 5916 5915 5914 5914 5913 5913 5912 5911 5911 5910 5910 5909 5909 5908 5907 5907 5906 5906 5905 5904 5905 5905 5903 5903 5903 5904 5903 5901 5901 5901 5900 5899 5899 5899 5900 5900 5901 5900 5900 5900 5900 5900 5901 5902 5902 5902 5902 5902 5902 5902
5926 5926 5926 5926 5927 5927 5927 5927 5926 5926 5925 5925 5924 5924 5923 5923 5922 5921 5921 5921 5920 5920 5920 5920 5919 5919 5919 5919 5919 5918 5918 5917 5917 5917 5917 5916 5915 5914 5914 5913 5912 5912 5911 5911 5910 5910 5909 5908 5908 5907 5906 5906 5906 5905 5904 5904 5904 5903 5903 5903 5903 5903 5901 5901 5900 5900 5899 5899 5899 5899 5899 5900 5899 5899 5899 5899 5900 5900 5900 5900 5901 5901 5900 5900 5900
5926 5926 5927 5927 5927 5927 5927 5927 5926 5926 5925 5924 5924 5923 5923 5922 5922 5921 5921 5920 5920 5920 5919 5919 5919 5919 5919 5918 5918 5918 5917 5917 5917 5916 5916 5916 5915 5914 5913 5912 5912 5912 5911 5911 5910 5909 5909 5908 5908 5907 5906 5905 5905 5905 5904 5903 5903 5903 5902 5902 5902 5902 5901 5901 5900 5899 5899 5899 5899 5899 5899 5899 5898 5897 5898 5899 5899 5897 5896 5897 5898 5898 5899 5899 5899
5926 5927 5927 5927 5927 5927 5927 5927 5926 5925 5925 5924 5923 5923 5922 5922 5921 5920 5920 5920 5919 5919 5918 5918 5919 5918 5918 5918 5917 5917 5917 5916 5916 5916 5915 5915 5914 5914 5913 5912 5912 5911 5911 5910 5910 5909 5909 5908 5908 5907 5906 5905 5904 5904 5904 5903 5903 5903 5902 5901 5901 5901 5901 5900 5900 5900 5899 5899 5899 5898 5898 5898 5897 5896 5897 5899 5898 5895 5895 5895 5896 5897 5897 5897 5897
5926 5927 5927 5928 5927 5927 5927 5926 5925 5925 5924 5923 5922 5922 5922 5921 5921 5920 5920 5919 5919 5919 5918 5918 5918 5917 5917 5917 5917 5917 5916 5916 5915 5915 5914 5914 5914 5913 5912 5912 5912 5911 5910 5910 5909 5909 5908 5908 5907 5907 5906 5905 5904 5903 5903 5902 5902 5902 5901 5900 5900 5900 5900 5900 5900 5899 5899 5899 5898 5898 5897 5897 5895 5895 5897 5898 5896 5894 5894 5894 5895 5895 5895 5895 5895
5927 5927 5927 5927 5927 5926 5926 5925 5924 5923 5923 5922 5921 5921 5921 5920 5920 5920 5919 5919 5919 5918 5918 5917 5917 5917 5917 5917 5916 5916 5916 5915 5914 5914 5913 5913 5913 5912 5912 5911 5911 5910 5910 5909 5909 5908 5908 5907 5907 5906 5905 5905 5904 5903 5902 5901 5901 5901 5901 5900 5900 5900 5900 5900 5899 5899 5899 5898 5897 5897 5896 5895 5894 5895 5897 5896 5895 5894 5894 5893 5893 5893 5893 5892 5893
5927 5927 5927 5927 5926 5925 5925 5924 5923 5922 5921 5921 5920 5920 5920 5920 5920 5919 5919 5919 5918 5918 5918 5917 5917 5916 5916 5916 5916 5915 5915 5915 5914 5913 5913 5912 5912 5911 5911 5910 5910 5910 5909 5908 5908 5907 5907 5907 5906 5906 5905 5904 5903 5903 5902 5901 5901 5901 5900 5900 5900 5900 5900 5900 5899 5898 5898 5897 5896 5896 5896 5894 5893 5895 5896 5895 5894 5894 5893 5892 5892 5892 5890 5890 5891
5927 5927 5927 5926 5925 5924 5924 5923 5922 5921 5921 5920 5920 5920 5920 5920 5919 5919 5919 5919 5918 5918 5917 5917 5917 5916 5916 5915 5915 5915 5914 5914 5913 5912 5912 5911 5911 5910 5909 5909 5909 5909 5908 5907 5907 5906 5906 5906 5906 5905 5904 5903 5903 5902 5901 5901 5900 5900 5900 5900 5899 5899 5899 5899 5898 5897 5897 5896 5895 5895 5894 5894 5893 5894 5895 5894 5893 5893 5892 5892 5891 5890 5889 5889 5890
5927 5926 5926 5925 5924 5924 5923 5922 5922 5921 5920 5920 5920 5920 5920 5920 5919 5919 5919 5919 5918 5918 5917 5917 5916 5916 5915 5914 5914 5914 5913 5913 5912 5911 5911 5910 5910 5909 5908 5908 5908 5907 5907 5906 5906 5905 5905 5905 5904 5904 5903 5903 5902 5902 5901 5900 5900 5899 5899 5899 5899 5898 5898 5897 5897 5896 5895 5895 5894 5893 5893 5893 5892 5892 5893 5893 5891 5891 5891 5891 5889 5888 5888 5888 5890
5926 5926 5925 5924 5924 5923 5923 5922 5921 5921 5920 5920 5920 5920 5920 5919 5919 5919 5919 5919 5918 5917 5917 5916 5916 5915 5914 5914 5913 5913 5912 5912 5911 5911 5910 5909 5909 5908 5907 5907 5906 5906 5906 5906 5905 5904 5904 5904 5903 5903 5902 5902 5901 5901 5900 5899 5899 5899 5898 5898 5898 5897 5897 5896 5896 5895 5894 5893 5893 5892 5892 5891 5891 5891 5891 5891 5890 5889 5889 5889 5888 5887 5887 5889 5889
5925 5925 5925 5924 5923 5923 5922 5922 5921 5921 5920 5920 5920 5920 5920 5919 5919 5919 5918 5918 5918 5917 5916 5916 5915 5914 5914 5913 5912 5911 5911 5910 5910 5909 5909 5908 5907 5907 5905 5905 5905 5905 5904 5904 5904 5903 5903 5902 5902 5902 5902 5901 5900 5900 5899 5899 5898 5898 5898 5897 5897 5896 5896 5895 5895 5894 5893 5893 5892 5891 5891 5890 5890 5890 5889 5889 5889 5888 5888 5887 5886 5886 5887 5888 5887
5924 5924 5924 5923 5923 5922 5922 5922 5921 5921 5920 5920 5920 5920 5919 5919 5919 5918 5918 5917 5917 5916 5915 5914 5914 5913 5912 5911 5910 5909 5909 5908 5908 5908 5907 5906 5905 5905 5903 5902 5903 5903 5903 5903 5902 5902 5901 5901 5901 5901 5901 5900 5900 5899 5898 5898 5897 5897 5897 5897 5896 5896 5895 5894 5894 5893 5893 5892 5891 5890 5890 5889 5889 5889 5888 5888 5888 5887 5887 5886 5885 5885 5885 5885 5885
5923 5923 5923 5923 5922 5922 5922 5922 5921 5921 5920 5920 5919 5919 5919 5919 5918 5918 5917 5916 5916 5915 5914 5913 5912 5911 5910 5909 5908 5907 5906 5906 5906 5906 5905 5904 5903 5902 5902 5901 5901 5900 5901 5901 5901 5900 5900 5900 5900 5900 5900 5899 5899 5898 5898 5897 5897 5896 5896 5896 5895 5895 5894 5893 5893 5892 5892 5891 5890 5890 5889 5888 5888 5887 5887 5887 5886 5886 5885 5885 5884 5884 5884 5883 5883
5922 5922 5922 5922 5922 5922 5921 5921 5921 5920 5920 5920 5919 5919 5919 5919 5918 5918 5917 5916 5915 5914 5912 5911 5910 5909 5908 5907 5906 5905 5904 5903 5903 5903 5902 5902 5901 5900 5900 5899 5899 5899 5899 5899 5899 5898 5898 5898 5898 5899 5899 5898 5897 5897 5897 5896 5896 5896 5895 5895 5894 5894 5893 5892 5892 5891 5890 5890 5889 5888 5888 5887 5887 5886 5886 5885 5885 5884 5884 5883 5883 5882 5882 5882 5881
5921 5921 5921 5921 5921 5921 5921 5920 5920 5920 5919 5919 5919 5919 5919 5918 5918 5917 5916 5915 5914 5913 5911 5910 5909 5908 5907 5906 5904 5903 5902 5901 5900 5900 5900 5899 5899 5899 5898 5898 5897 5897 5897 5897 5896 5896 5896 5896 5896 5897 5897 5897 5896 5895 5895 5895 5895 5894 5894 5893 5893 5892 5891 5891 5890 5889 5889 5888 5888 5887 5887 5886 5885 5885 5884 5884 5883 5883 5882 5881 5881 5880 5880 5880 5880
5920 5920 5920 5920 5920 5920 5920 5919 5919 5919 5919 5919 5919 5919 5918 5918 5917 5917 5916 5915 5914 5912 5911 5909 5908 5906 5905 5904 5903 5902 5901 5900 5898 5898 5898 5897 5897 5896 5896 5896 5895 5895 5896 5895 5895 5895 5894 5895 5895 5895 5895 5895 5894 5894 5893 5893 5893 5892 5892 5891 5891 5890 5890 5889 5888 5888 5887 5887 5886 5886 5885 5885 5884 5883 5883 5882 5881 5881 5880 5880 5879 5879 5878 5878 5878
5919 5919 5919 5919 5919 5919 5919 5918 5918 5919 5919 5919 5919 5918 5918 5917 5917 5916 5915 5914 5913 5912 5910 5908 5907 5905 5903 5903 5902 5901 5900 5899 5898 5897 5896 5895 5895 5895 5894 5894 5893 5894 5894 5894 5894 5893 5893 5893 5893 5893 5893 5893 5892 5892 5891 5891 5890 5890 5890 5889 5889 5888 5887 5887 5886 5886 5885 5885 5885 5884 5883 5883 5882 5881 5881 5880 5879 5879 5878 5878 5877 5877 5876 5876 5876
5918 5918 5918 5918 5918 5918 5918 5918 5918 5918 5918 5918 5918 5918 5917 5917 5916 5915 5914 5913 5912 5911 5910 5908 5906 5904 5902 5902 5901 5900 5899 5899 5898 5896 5895 5894 5894 5893 5893 5892 5892 5892 5892 5893 5893 5892 5892 5891 5891 5891 5890 5890 5890 5889 5889 5889 5888 5888 5887 5887 5886 5886 5885 5884 5884 5883 5883 5883 5882 5882 5881 5881 5880 5879 5879 5878 5877 5877 5876 5876 5875 5875 5874 5873 5873
5917 5917 5917 5917 5917 5917 5916 5917 5917 5917 5917 5917 5917 5917 5917 5916 5915 5914 5913 5913 5912 5910 5909 5908 5906 5904 5902 5901 5900 5899 5898 5897 5897 5896 5895 5893 5893 5892 5891 5891 5890 5890 5891 5891 5891 5890 5890 5889 5888 5888 5887 5887 5887 5886 5886 5886 5886 5885 5885 5884 5883 5882 5882 5881 5881 5881 5880 5880 5879 5879 5878 5878 5877 5877 5876 5876 5875 5874 5874 5873 5873 5872 5872 5871 5871
5916 5916 5916 5916 5916 5916 5915 5915 5916 5916 5916 5916 5916 5916 5916 5915 5914 5913 5913 5912 5911 5910 5908 5907 5906 5904 5902 5900 5899 5897 5897 5896 5895 5894 5894 5893 5892 5891 5891 5890 5889 5889 5889 5889 5889 5888 5888 5887 5886 5886 5885 5884 5884 5883 5883 5882 5882 5882 5881 5881 5880 5879 5879 5878 5878 5878 5877 5877 5876 5876 5875 5874 5874 5873 5873 5873 5872 5872 5871 5871 5870 5869 5869 5868 5868
5915 5915 5915 5915 5915 5915 5915 5914 5914 5915 5915 5915 5915 5915 5915 5914 5913 5912 5912 5911 5910 5909 5908 5906 5905 5904 5902 5900 5898 5896 5895 5894 5893 5893 5892 5891 5891 5891 5890 5890 5889 5888 5888 5887 5887 5887 5886 5886 5885 5885 5884 5883 5882 5881 5880 5879 5878 5878 5877 5876 5876 5875 5875 5874 5873 5873 5873 5872 5872 5872 5871 5871 5870 5870 5869 5869 5869 5868 5868 5867 5867 5866 5865 5865 5864
5914 5914 5914 5914 5914 5914 5914 5914 5914 5914 5914 5914 5914 5913 5913 5913 5912 5911 5910 5909 5908 5908 5907 5905 5904 5902 5901 5900 5898 5896 5894 5893 5892 5891 5890 5890 5889 5889 5889 5888 5888 5887 5886 5886 5886 5885 5885 5885 5884 5883 5882 5881 5880 5879 5878 5876 5875 5874 5873 5873 5872 5871 5870 5869 5868 5868 5867 5867 5867 5867 5867 5866 5866 5865 5865 5864 5864 5863 5863 5863 5863 5862 5862 5861 5861
5913 5913 5912 5912 5912 5912 5913 5912 5912 5912 5912 5912 5912 5912 5912 5911 5911 5910 5909 5908 5907 5906 5905 5904 5903 5901 5900 5899 5897 5895 5893 5892 5890 5889 5889 5888 5887 5887 5886 5886 5885 5885 5884 5884 5884 5884 5883 5883 5882 5881 5880 5879 5878 5876 5875 5874 5873 5872 5871 5870 5869 5868 5867 5866 5865 5864 5863 5862 5862 5862 5862 5861 5861 5860 5860 5859 5858 5858 5857 5857 5857 5858 5858 5857 5857
5911 5911 5911 5911 5911 5911 5911 5911 5911 5911 5911 5911 5911 5911 5911 5910 5909 5908 5907 5907 5906 5905 5904 5903 5901 5900 5898 5897 5896 5895 5893 5891 5889 5888 5887 5887 5886 5885 5884 5883 5883 5882 5882 5882 5881 5881 5880 5880 5879 5878 5877 5876 5875 5874 5872 5871 5870 5869 5868 5868 5867 5866 5866 5865 5863 5862 5860 5859 5858 5857 5856 5856 5856 5855 5854 5854 5853 5852 5852 5851 5851 5851 5852 5852 5852
5910 5910 5909 5909 5910 5910 5910 5910 5909 5909 5909 5910 5910 5910 5909 5909 5908 5907 5906 5906 5905 5904 5902 5901 5900 5898 5896 5895 5894 5893 5891 5890 5888 5886 5886 5885 5884 5883 5882 5881 5881 5880 5879 5879 5879 5878 5877 5876 5875 5875 5874 5873 5872 5871 5870 5869 5868 5867 5865 5864 5864 5863 5863 5862 5861 5860 5858 5856 5855 5854 5853 5852 5851 5850 5849 5848 5848 5847 5847 5846 5846 5845 5845 5846 5847
5908 5908 5908 5908 5908 5908 5908 5908 5908 5908 5908 5908 5908 5908 5908 5907 5906 5906 5905 5904 5903 5902 5901 5900 5898 5896 5894 5893 5892 5891 5890 5888 5886 5885 5884 5883 5882 5881 5880 5879 5879 5878 5877 5876 5876 5875 5874 5873 5872 5871 5870 5869 5868 5867 5866 5865 5864 5863 5862 5861 5860 5859 5858 5857 5856 5855 5855 5853 5852 5850 5849 5848 5847 5846 5845 5844 5843 5842 5842 5842 5841 5841 5840 5840 5840
5905 5906 5906 5906 5906 5906 5906 5907 5907 5906 5906 5907 5907 5907 5906 5906 5905 5904 5904 5903 5902 5901 5899 5898 5896 5894 5893 5891 5890 5889 5888 5886 5885 5883 5882 5881 5880 5879 5878 5877 5876 5875 5874 5873 5873 5872 5871 5869 5868 5867 5866 5865 5864 5863 5862 5861 5860 5859 5858 5856 5855 5854 5852 5851 5850 5849 5848 5848 5847 5846 5844 5843 5842 5841 5841 5840 5839 5838 5837 5837 5836 5836 5835 5835 5834
5903 5904 5904 5904 5904 5904 5904 5905 5905 5905 5905 5905 5905 5905 5905 5904 5904 5903 5902 5901 5900 5899 5897 5896 5894 5892 5891 5889 5888 5887 5886 5885 5883 5882 5881 5879 5878 5876 5875 5874 5873 5872 5871 5870 5869 5868 5867 5866 5865 5863 5862 5861 5859 5858 5857 5856 5855 5854 5853 5851 5850 5849 5848 5847 5845 5844 5842 5842 5841 5841 5840 5838 5837 5836 5835 5834 5833 5832 5832 5831 5830 5830 5829 5829 5829
5901 5902 5902 5902 5902 5902 5902 5903 5903 5904 5904 5904 5904 5904 5903 5903 5902 5902 5901 5899 5898 5896 5895 5893 5892 5891 5889 5887 5886 5885 5884 5882 5881 5880 5879 5878 5876 5874 5873 5871 5870 5869 5868 5867 5865 5865 5864 5862 5860 5859 5858 5856 5854 5853 5852 5851 5850 5849 5847 5846 5846 5845 5844 5843 5841 5839 5838 5836 5835 5834 5833 5832 5831 5831 5829 5828 5827 5826 5826 5825 5824 5824 5823 5823 5823
5899 5899 5900 5900 5900 5900 5900 5901 5901 5902 5902 5902 5902 5902 5902 5901 5901 5900 5899 5897 5896 5894 5892 5891 5889 5888 5886 5885 5884 5883 5881 5880 5879 5878 5876 5875 5873 5872 5870 5869 5867 5866 5865 5863 5862 5861 5860 5858 5856 5854 5853 5851 5849 5847 5846 5845 5844 5844 5843 5842 5841 5840 5839 5837 5836 5834 5832 5831 5830 5829 5827 5826 5825 5824 5823 5821 5820 5820 5819 5819 5818 5818 5817 5817 5816
5897 5897 5897 5897 5897 5898 5898 5899 5899 5900 5900 5901 5900 5900 5900 5899 5899 5898 5896 5895 5893 5891 5889 5888 5886 5885 5883 5882 5881 5880 5879 5877 5876 5875 5873 5872 5870 5868 5867 5866 5864 5863 5862 5860 5859 5857 5856 5854 5852 5851 5849 5847 5844 5841 5840 5841 5841 5840 5839 5837 5836 5834 5833 5831 5830 5828 5827 5826 5825 5823 5822 5820 5819 5817 5815 5814 5814 5813 5813 5812 5812 5811 5811 5811 5811
5894 5894 5895 5895 5895 5895 5896 5896 5897 5898 5898 5898 5898 5898 5898 5897 5896 5895 5894 5892 5891 5889 5887 5885 5884 5882 5880 5879 5878 5876 5876 5874 5873 5871 5870 5869 5867 5865 5864 5863 5862 5860 5859 5857 5855 5854 5852 5850 5848 5846 5844 5841 5840 5838 5837 5838 5838 5835 5834 5833 5831 5830 5828 5826 5824 5822 5821 5819 5818 5816 5815 5813 5812 5810 5808 5807 5807 5807 5806 5805 5805 5805 5805 5805 5804
5892 5892 5893 5893 5893 5893 5893 5894 5894 5895 5895 5896 5895 5895 5895 5895 5894 5893 5891 5890 5888 5886 5884 5883 5881 5880 5878 5876 5875 5874 5873 5871 5870 5868 5867 5865 5864 5862 5860 5859 5858 5857 5855 5853 5852 5850 5849 5846 5843 5840 5838 5836 5835 5835 5833 5833 5832 5830 5829 5828 5827 5825 5823 5821 5819 5817 5815 5814 5812 5810 5808 5807 5805 5804 5802 5801 5801 5801 5800 5799 5798 5798 5797 5797 5797
5889 5890 5891 5891 5890 5890 5891 5891 5892 5892 5893 5893 5893 5892 5892 5892 5891 5890 5888 5887 5885 5884 5882 5880 5879 5877 5876 5874 5872 5871 5870 5869 5867 5865 5864 5862 5861 5859 5857 5855 5854 5852 5850 5849 5848 5846 5844 5841 5838 5835 5832 5830 5831 5831 5829 5827 5826 5825 5824 5823 5822 5819 5817 5816 5815 5812 5810 5808 5806 5804 5803 5801 5800 5798 5797 5796 5795 5794 5793 5792 5792 5791 5790 5790 5789
5887 5888 5889 5888 5888 5888 5888 5889 5890 5890 5890 5890 5890 5890 5889 5888 5887 5887 5886 5884 5883 5881 5880 5878 5876 5875 5874 5872 5870 5869 5867 5866 5864 5863 5861 5859 5857 5856 5854 5851 5849 5848 5846 5844 5843 5840 5837 5835 5832 5830 5827 5826 5827 5825 5823 5822 5821 5820 5820 5819 5817 5814 5812 5810 5809 5807 5804 5802 5800 5798 5796 5795 5794 5792 5791 5790 5789 5788 5787 5785 5784 5783 5782 5782 5781
5885 5885 5886 5886 5886 5886 5887 5887 5888 5888 5888 5888 5888 5888 5887 5886 5884 5884 5883 5882 5880 5879 5877 5875 5874 5873 5871 5870 5868 5866 5864 5863 5861 5860 5858 5856 5854 5852 5850 5848 5845 5843 5842 5839 5837 5835 5831 5829 5828 5826 5824 5822 5821 5819 5818 5817 5816 5815 5814 5813 5811 5809 5807 5805 5803 5800 5798 5796 5794 5792 5790 5788 5787 5785 5784 5784 5782 5781 5780 5778 5777 5776 5775 5774 5774
5882 5882 5883 5883 5884 5884 5885 5885 5886 5886 5886 5886 5886 5885 5884 5883 5882 5881 5881 5880 5878 5876 5874 5873 5872 5870 5869 5867 5865 5863 5862 5860 5858 5857 5855 5853 5851 5849 5846 5844 5842 5840 5838 5835 5832 5830 5827 5826 5825 5823 5821 5818 5816 5814 5813 5812 5810 5809 5808 5806 5805 5804 5802 5800 5798 5794 5790 5789 5788 5786 5783 5781 5780 5779 5777 5776 5774 5773 5772 5771 5769 5769 5768 5767 5766
5879 5879 5880 5881 5882 5882 5882 5883 5884 5884 5884 5883 5883 5883 5882 5881 5879 5879 5879 5878 5876 5874 5872 5871 5869 5868 5866 5864 5862 5861 5859 5857 5855 5853 5851 5849 5847 5845 5842 5840 5838 5837 5834 5831 5827 5825 5824 5822 5821 5819 5818 5816 5813 5811 5809 5808 5805 5804 5803 5801 5799 5797 5795 5793 5792 5788 5784 5782 5781 5780 5777 5774 5773 5772 5770 5768 5766 5765 5764 5763 5762 5761 5760 5758 5758
5876 5877 5878 5879 5880 5880 5880 5881 5881 5882 5881 5881 5880 5880 5879 5878 5877 5876 5876 5875 5873 5871 5870 5868 5867 5865 5863 5861 5860 5858 5855 5853 5852 5850 5847 5845 5843 5840 5838 5837 5834 5832 5830 5827 5824 5821 5819 5817 5816 5815 5814 5812 5810 5808 5806 5803 5801 5799 5797 5795 5792 5790 5788 5785 5784 5781 5778 5774 5773 5773 5771 5767 5764 5765 5763 5760 5758 5758 5756 5754 5753 5753 5752 5750 5750
5873 5874 5875 5877 5877 5877 5878 5879 5879 5879 5878 5878 5878 5877 5876 5875 5874 5873 5873 5872 5870 5869 5867 5865 5864 5862 5861 5859 5857 5854 5852 5850 5848 5845 5844 5841 5839 5837 5835 5832 5830 5828 5827 5823 5820 5817 5815 5813 5813 5811 5810 5808 5807 5805 5801 5798 5795 5793 5790 5788 5785 5783 5780 5778 5776 5774 5770 5767 5765 5765 5765 5760 5756 5757 5756 5753 5751 5750 5748 5746 5745 5744 5743 5742 5742
5870 5872 5873 5874 5874 5875 5876 5876 5876 5876 5875 5875 5874 5874 5873 5872 5870 5870 5869 5868 5867 5866 5864 5862 5861 5859 5858 5856 5853 5851 5849 5846 5844 5841 5840 5838 5836 5834 5831 5828 5826 5824 5822 5819 5815 5813 5811 5809 5807 5806 5804 5802 5801 5799 5795 5791 5789 5786 5783 5781 5778 5775 5773 5770 5768 5766 5762 5759 5757 5757 5757 5754 5750 5749 5749 5746 5744 5743 5740 5738 5738 5736 5735 5735 5734
5868 5870 5871 5871 5872 5872 5873 5873 5873 5873 5872 5871 5871 5871 5870 5868 5867 5866 5866 5865 5864 5863 5861 5859 5857 5855 5854 5852 5850 5848 5845 5843 5840 5838 5836 5834 5832 5830 5827 5824 5822 5820 5818 5815 5811 5809 5807 5804 5802 5801 5798 5795 5793 5790 5787 5784 5781 5778 5776 5774 5771 5768 5766 5764 5761 5758 5755 5752 5749 5748 5748 5746 5743 5742 5741 5739 5737 5736 5733 5731 5730 5728 5728 5727 5727
5865 5867 5867 5868 5869 5869 5870 5869 5869 5869 5869 5868 5868 5868 5866 5865 5864 5863 5863 5862 5861 5859 5857 5856 5854 5852 5850 5848 5846 5844 5842 5839 5837 5835 5833 5831 5829 5826 5823 5820 5818 5815 5813 5810 5806 5803 5802 5800 5797 5795 5792 5789 5786 5783 5780 5777 5774 5771 5769 5766 5764 5761 5759 5756 5754 5751 5748 5745 5741 5739 5739 5739 5736 5735 5734 5732 5730 5728 5725 5723 5722 5721 5720 5720 5719
5862 5863 5865 5866 5866 5866 5866 5866 5866 5866 5866 5865 5865 5864 5863 5862 5861 5860 5860 5858 5857 5856 5854 5852 5851 5849 5846 5843 5842 5840 5838 5835 5833 5831 5829 5827 5825 5822 5819 5816 5814 5811 5808 5806 5802 5799 5798 5796 5793 5789 5786 5783 5780 5777 5774 5771 5768 5765 5762 5759 5756 5753 5751 5749 5747 5744 5741 5738 5735 5732 5732 5732 5729 5727 5727 5725 5723 5720 5717 5716 5715 5714 5713 5713 5712
5859 5861 5862 5862 5863 5863 5863 5863 5863 5863 5863 5862 5861 5860 5859 5858 5858 5857 5856 5855 5854 5852 5850 5848 5847 5844 5842 5840 5837 5836 5834 5832 5829 5827 5825 5823 5821 5818 5814 5811 5809 5807 5804 5802 5800 5796 5793 5790 5787 5784 5780 5777 5774 5771 5767 5764 5761 5759 5756 5753 5750 5747 5744 5742 5740 5738 5735 5732 5728 5725 5726 5725 5722 5719 5719 5718 5716 5713 5711 5710 5709 5707 5707 5706 5706
5857 5857 5857 5858 5859 5859 5860 5860 5859 5859 5859 5859 5858 5856 5855 5854 5854 5854 5853 5851 5850 5848 5846 5845 5843 5840 5838 5836 5833 5831 5829 5827 5825 5823 5821 5819 5816 5813 5810 5807 5804 5802 5800 5797 5795 5791 5788 5784 5781 5778 5774 5771 5768 5765 5761 5758 5755 5752 5749 5746 5743 5741 5738 5736 5733 5731 5729 5726 5722 5719 5719 5717 5715 5712 5711 5710 5710 5707 5704 5703 5703 5702 5701 5700 5700